This is the latest recevied weather packets stored in our database for station/object DW9280. If no packets are shown the sender has not sent any weather packets the latest 10 day(s).
| Time | Temp. | Humidity | Pressure | Rain* | Wind** | Luminosity | Snow |
|---|---|---|---|---|---|---|---|
| 1788083643 | 17.78° C | 97% | 1008.8 hPa | 8.38 mm | - | 83 W/m² | - |
| 1788083343 | 17.78° C | 96% | 1008.7 hPa | 8.89 mm | - | 49 W/m² | - |
| 1788083043 | 17.78° C | 97% | 1008.7 hPa | 8.13 mm | - | 44 W/m² | - |
| 1788082743 | 18.33° C | 97% | 1008.7 hPa | 8.89 mm | - | 79 W/m² | - |
| 1788082443 | 18.33° C | 96% | 1008.6 hPa | 8.89 mm | - | 47 W/m² | - |
| 1788082143 | 18.33° C | 97% | 1008.6 hPa | 8.89 mm | - | 32 W/m² | - |
| 1788081882 | 18.33° C | 97% | 1008.5 hPa | 8.64 mm | - | 51 W/m² | - |
| 1788081542 | 18.33° C | 97% | 1008.4 hPa | 8.89 mm | - | 51 W/m² | - |
| 1788081241 | 18.33° C | 97% | 1008.3 hPa | 8.64 mm | - | 70 W/m² | - |
| 1788080944 | 18.33° C | 97% | 1008.3 hPa | 8.64 mm | - | 81 W/m² | - |
| 1788080642 | 18.33° C | 97% | 1008.3 hPa | 8.64 mm | - | 213 W/m² | - |
| 1788080343 | 18.33° C | 96% | 1008.3 hPa | 8.89 mm | - | 74 W/m² | - |
| 1788080045 | 18.33° C | 97% | 1008.2 hPa | 8.38 mm | - | 44 W/m² | - |
| 1788079743 | 18.33° C | 96% | 1008.2 hPa | 7.11 mm | - | 40 W/m² | - |
| 1788079443 | 18.33° C | 96% | 1008.1 hPa | 7.11 mm | - | 42 W/m² | - |
| 1788079143 | 18.33° C | 96% | 1008.1 hPa | 6.35 mm | - | 44 W/m² | - |
| 1788078842 | 18.33° C | 96% | 1008.1 hPa | 3.56 mm | - | 33 W/m² | - |
| 1788078543 | 18.33° C | 96% | 1007.9 hPa | 2.03 mm | - | 35 W/m² | - |
| 1788078282 | 18.33° C | 96% | 1007.8 hPa | 1.78 mm | - | 77 W/m² | - |
| 1788077944 | 18.33° C | 96% | 1007.8 hPa | 1.78 mm | - | 127 W/m² | - |
| 1788077645 | 18.33° C | 96% | 1007.8 hPa | 1.78 mm | - | 111 W/m² | - |
| 1788077343 | 18.33° C | 96% | 1007.7 hPa | 1.78 mm | - | 91 W/m² | - |
| 1788077043 | 18.33° C | 96% | 1007.8 hPa | 2.29 mm | - | 93 W/m² | - |
| 1788076782 | 18.33° C | 96% | 1007.7 hPa | 2.79 mm | - | 121 W/m² | - |
| 1788076485 | 18.33° C | 96% | 1007.6 hPa | 3.3 mm | - | 53 W/m² | - |
* Rain latest hour (hover to see other rain measurements)
** Current wind speed in m/s (hover to see current wind gust speed)